Miscellaneous Local Product
Issued by NWS North Platte, NE

Home | Current Version | Previous Version | Graphics & Text | Print | Product List | Glossary On
Versions: 1 2 3 4 5 6 7 8 9 10 11 12 13 14 15 16 17 18 19 20 21 22 23 24 25 26 27 28 29 30 31 32 33 34 35 36 37 38 39 40 41 42 43 44 45 46 47 48 49 50
000
AXUS43 KLBF 301410
MISLBF


WESTERN AND NORTH CENTRAL NEBRASKA HOURLY WEATHER ROUNDUP
NATIONAL WEATHER SERVICE NORTH PLATTE NE
900 AM CDT TUE SEP 30 2014

***STATIONS NOT REPORTING VARIABLES SUCH AS SKY/WEATHER OR
PRESSURE ARE PROVIDED BY THE NEBRASKA DEPARTMENT OF
ROADS...RAWS...AND APRS NETWORKS...AND ARE NOT UNDER
NATIONAL WEATHER SERVICE QUALITY CONTROL***

...OBSERVATIONS IN AND NEAR THE EASTERN PANHANDLE OF NEBRASKA...

CITY           SKY/WX    TMP DP  RH WIND       PRES   REMARKS
PINE RIDGE     LGT RAIN  51  50  96 SW23G33   29.46R FOG
CHADRON        LGT RAIN  52  49  89 W26G38    29.52R
ALLIANCE       CLOUDY    52  48  86 W16       29.67R
SIDNEY         PTSUNNY   53  44  71 SW17      29.78R
WHITECLAY        N/A     50  47  90 SW17        N/A
RUSHVILLE        N/A     50  45  81 SW35        N/A
CRESCENT LAKE    N/A     53  47  79 SW15G23     N/A
LISCO            N/A     57  45  62 S17         N/A
BIG SPRINGS      N/A     50  47  90 SW5         N/A
$$

...OBSERVATIONS IN NORTH CENTRAL NEBRASKA...

CITY           SKY/WX    TMP DP  RH WIND       PRES   REMARKS
VALENTINE      PTSUNNY   56  47  71 S25G37    29.61F
THEDFORD       PTSUNNY   57  48  73 S20G25    29.71F
AINSWORTH      CLOUDY    56  47  72 S14G22    29.68R
O`NEILL        PTSUNNY   65  62  91 S13G22    29.73R
ORD            MOSUNNY   63  56  78 SW17      29.75R
BROKEN BOW     PTSUNNY   59  51  75 S9        29.77R
SPRINGVIEW       N/A     60  50  70 S7G17       N/A
ROSE             N/A     62  54  73 SE14        N/A
NEWPORT          N/A     66  57  73 S17         N/A
SARGENT          N/A     60  54  82 CALM        N/A
COMSTOCK         N/A     65  57  75 S8          N/A
CHAMBERS         N/A     64  60  87 S12G22      N/A
$$

...OBSERVATIONS IN SOUTHWEST NEBRASKA AND FAR NORTHEAST COLORADO...

CITY           SKY/WX    TMP DP  RH WIND       PRES   REMARKS
WRAY           FAIR      53  48  81 SW5       29.83S
HOLYOKE        FAIR      54  48  82 SW10      29.81S
IMPERIAL       SUNNY     52  47  83 SW9       29.81S
OGALLALA       MOSUNNY   53  49  86 W5        29.77S
NORTH PLATTE   SUNNY     54  48  80 S10       29.77S
MCCOOK         SUNNY     54  50  86 SW9       29.82S
LEXINGTON      MOSUNNY   58  53  84 S6        29.80S
PAXTON           N/A     50  47  90 S8          N/A
SUTHERLAND       N/A     51  44  79 SW14        N/A
BRADY            N/A     53  48  84 CALM        N/A
GOTHENBURG       N/A     54  47  77 CALM        N/A
CALLAWAY         N/A     52  49  90 S10         N/A
$$

...SOME WEATHER OBSERVATIONS FROM AROUND THE REGION...

CITY           SKY/WX    TMP DP  RH WIND       PRES   REMARKS
DENVER         MOSUNNY   50  38  63 SW12      29.84S
LARAMIE        MOSUNNY   44  31  60 W16G24    29.89R
CHEYENNE       PTSUNNY   51  34  52 W23G31    29.85R
SCOTTSBLUFF    CLOUDY    56  44  64 W20G35    29.69R
RAPID CITY     LGT RAIN  53  50  89 NE14      29.43F
PIERRE         CLOUDY    59  57  93 E24G33    29.54F
WINNER         FAIR      63  52  67 S22G38    29.62R
SIOUX FALLS    CLOUDY    54  51  90 SE18      29.84F
OMAHA          CLOUDY    66  58  75 SE7       29.88S
GRAND ISLAND   PTSUNNY   66  58  75 S15       29.82R
KANSAS CITY    PTSUNNY   67  60  78 SE9       29.92F
WICHITA        PTSUNNY   68  59  73 S12       29.88F
HAYS           CLOUDY    63  57  82 SE5       29.84S
LIBERAL        SUNNY     64  55  72 SW9       29.85S
GOODLAND       SUNNY     52  47  83 CALM      29.86F
$$



USA.gov is the U.S. government's official web portal to all federal, state and local government web resources and services.